OKEAN-0
1 25860U 99039A 12145.77616167 .00000527 00000-0 87362-4 0 6356
2 25860 097.9334 108.9016 0001100 042.7613 317.3680 14.74195652691129
NOAA-16
1 26536U 00055A 12144.67408034 .00000398 00000-0 23921-3 0 07567
2 26536 099.0952 186.4148 0011046 148.9579 211.2276 14.12740528601579
NOAA-17
1 27453U 02032A 12144.71848778 .00000069 00000-0 47450-4 0 07144
2 27453 098.3370 172.9890 0010892 225.2264 134.8016 14.24434017515275
NOAA-18
1 28654U 05018A 12144.75453639 -.00000093 00000-0 -26043-4 0 01909
2 28654 099.0449 102.6416 0013516 221.5626 138.4518 14.11650237361114
NOAA-19
1 33591U 09005A 12144.82787889 .00000329 00000-0 20585-3 0 03827
2 33591 098.8633 084.9196 0015061 089.8753 270.4168 14.11338969169571
HUBBLE
1 20580U 90037B 12143.81672536 .00002000 00000-0 13466-3 0 45
2 20580 028.4714 309.5688 0003363 143.9013 216.2393 15.02492313 10915
ISS
1 25544U 98067A 12145.89835000 .00018238 00000-0 25894-3 0 6211
2 25544 051.6404 238.8498 0010979 357.5754 110.1131 15.56418703774383
CO-58
1 28895U 05043F 12145.65446007 .00000865 00000-0 18672-3 0 1829
2 28895 097.9178 012.9589 0017127 221.6722 138.3230 14.60616907350221
FALCON
1 30776U 07006E 12144.94947814 .00004551 00000-0 29708-3 0 03543
2 30776 035.4319 064.8671 0001287 202.2443 157.8225 15.07400200286596
MAST
1 31126U 07012K 12145.55229770 .00000563 00000-0 13590-3 0 4645
2 31126 097.8740 158.0370 0093571 183.6567 176.3940 14.54144023270833
CAPE1
1 31130U 07012P 12144.67303572 .00000599 00000-0 14637-3 0 04782
2 31130 097.8820 153.6040 0100790 199.4938 160.2383 14.52916345270218
COMPASS
1 32787U 08021E 12144.66025615 .00002168 00000-0 26678-3 0 03107
2 32787 097.8013 206.5365 0015785 137.3609 222.8860 14.83916215220179
AAUSAT2
1 32788U 08021F 12144.90483209 .00002325 00000-0 28342-3 0 03028
2 32788 097.8043 207.1439 0015927 136.7284 223.5183 14.84233109220230
DO-64
1 32789U 08021G 12145.64983381 .00004259 00000-0 49628-3 0 3171
2 32789 097.8144 209.8056 0015750 132.3481 227.9100 14.85669889220384
CO-66
1 32791U 08021J 12144.64031200 .00001665 00000-0 20913-3 0 03025
2 32791 097.8019 206.2777 0016514 137.4927 222.7590 14.83348469220101
RS-30
1 32953U 08025A 12145.54588335 .00000010 00000-0 00000 0 0 8057
2 32953 082.4989 309.8408 0018926 002.7982 357.3197 12.43023730181628
TACSAT-3
1 35001U 09028A 12121.72616188 .15204951 73582-5 42606-3 0 00016
2 35001 040.4259 351.8840 0007146 275.2650 085.0693 16.45157000166990
PHARMSAT
1 35002U 09028B 12145.33428465 .00122624 00000-0 63066-3 0 9066
2 35002 040.4587 219.6431 0006527 043.0987 317.0567 15.79976714170549
METEOR-M
1 35865U 09049A 12145.71601448 -.00000005 00000-0 17259-4 0 4374
2 35865 098.6561 200.4795 0003243 110.0903 250.0619 14.21862464139269
RS-38
1 35869U 09049E 12145.67026256 .00000061 00000-0 47078-4 0 4453
2 35869 098.6521 200.4341 0005245 113.7284 246.4440 14.22070906139277
JUGNU
1 37839U 11058B 12144.36707117 .00000619 00000-0 19019-3 0 1541
2 37839 019.9625 148.5937 0018436 312.6511 047.2322 14.12054918 31731
SRMSAT
1 37841U 11058D 12144.38783406 .00000264 00000-0 00000 0 0 1554
2 37841 019.9743 152.8731 0011970 276.7691 083.1454 14.10139292 31686
RAX-2
1 37853U 11061D 12145.79562683 .00007447 00000-0 59324-3 0 1859
2 37853 101.7146 175.3312 0247714 057.6799 304.8130 14.79824884 30937
AUBIESAT
1 37854U 11061E 12145.75627352 .00007659 00000-0 60058-3 0 1863
2 37854 101.7154 175.4928 0248832 057.4149 305.0819 14.80185649 30927
HRBE
1 37855U 11061F 12144.95652156 .00007323 00000-0 57575-3 0 02000
2 37855 101.7183 174.2914 0249391 059.4706 303.0857 14.80041054030802
RS-39
1 38051U 11062C 12145.72500233 .00010209 00000-0 42923-3 0 3621
2 38051 051.6321 271.6125 0011747 314.2541 183.4089 15.23921389 18398
E-STAR
1 38079U 12006C 12145.68107311 .00026585 00000-0 64846-3 0 2479
2 38079 069.4983 009.3477 0750111 277.4780 074.1940 14.13706713 14269
GOLIAT
1 38085U 12006J 12145.01954356 .00023719 00000-0 58543-3 0 2262
2 38085 069.4960 011.0423 0753694 278.3938 073.2853 14.12723987 14169
HORYU-2
1 38340U 12025D 12144.32142747 .00003745 00000-0 63280-3 0 00183
2 38340 098.1772 083.9989 0014654 051.5833 308.6703 14.69926881000815
